TimeMDT,TemperatureF,Dew PointF,Humidity,Sea Level PressureIn,VisibilityMPH,Wind Direction,Wind SpeedMPH,Gust SpeedMPH,PrecipitationIn,Events,Conditions,WindDirDegrees,DateUTC
12:53 AM,35.1,9.0,34,30.14,10.0,North,10.4,-,N/A,,Clear,350,2012-10-26 06:53:00
1:53 AM,34.0,10.9,38,30.12,10.0,NNE,11.5,-,N/A,,Clear,20,2012-10-26 07:53:00
2:53 AM,32.0,10.9,42,30.14,10.0,NE,6.9,-,N/A,,Clear,40,2012-10-26 08:53:00
3:53 AM,30.0,10.0,43,30.15,10.0,NNE,3.5,-,N/A,,Clear,30,2012-10-26 09:53:00
4:53 AM,23.0,8.1,53,30.20,10.0,Calm,Calm,-,N/A,,Clear,0,2012-10-26 10:53:00
5:53 AM,18.0,6.1,60,30.25,10.0,Calm,Calm,-,N/A,,Clear,0,2012-10-26 11:53:00
6:53 AM,19.9,7.0,57,30.28,10.0,Calm,Calm,-,N/A,,Clear,0,2012-10-26 12:53:00
7:53 AM,21.0,8.1,57,30.29,10.0,East,5.8,-,N/A,,Clear,100,2012-10-26 13:53:00
8:53 AM,25.0,9.0,51,30.30,10.0,South,3.5,-,N/A,,Clear,190,2012-10-26 14:53:00
9:53 AM,36.0,10.9,36,30.29,10.0,Calm,Calm,-,N/A,,Clear,0,2012-10-26 15:53:00
10:53 AM,41.0,-0.9,17,30.27,10.0,Variable,4.6,-,N/A,,Clear,0,2012-10-26 16:53:00
11:53 AM,42.1,1.0,18,30.28,10.0,Variable,4.6,-,N/A,,Clear,0,2012-10-26 17:53:00
12:53 PM,44.1,3.0,18,30.23,10.0,Variable,5.8,-,N/A,,Clear,0,2012-10-26 18:53:00
1:53 PM,46.0,1.0,16,30.20,10.0,Variable,4.6,-,N/A,,Clear,0,2012-10-26 19:53:00
2:53 PM,46.9,-0.0,14,30.17,10.0,SE,6.9,-,N/A,,Clear,140,2012-10-26 20:53:00
3:53 PM,48.0,-0.9,13,30.16,10.0,Variable,5.8,-,N/A,,Clear,0,2012-10-26 21:53:00
4:53 PM,48.0,-2.9,12,30.17,10.0,Variable,5.8,-,N/A,,Clear,0,2012-10-26 22:53:00
5:53 PM,46.0,-4.0,12,30.20,10.0,Variable,5.8,-,N/A,,Clear,0,2012-10-26 23:53:00
6:53 PM,39.9,-5.1,15,30.23,10.0,East,6.9,-,N/A,,Clear,100,2012-10-27 00:53:00
7:53 PM,37.9,-8.0,14,30.24,10.0,East,6.9,-,N/A,,Clear,90,2012-10-27 01:53:00
8:53 PM,30.9,-4.0,22,30.26,10.0,Calm,Calm,-,N/A,,Clear,0,2012-10-27 02:53:00
9:53 PM,27.0,-4.0,26,30.23,10.0,South,3.5,-,N/A,,Clear,190,2012-10-27 03:53:00
10:53 PM,26.1,-4.0,27,30.22,10.0,Calm,Calm,-,N/A,,Clear,0,2012-10-27 04:53:00
11:53 PM,21.9,-6.0,29,30.23,10.0,Calm,Calm,-,N/A,,Clear,0,2012-10-27 05:53:00